• en France
  • Liste des pays
  • À 7 jours
  • Température de l'eau
  • Carte satellitaire
  • Carte météo
  • Widgets météo
  • user-avatar
    Se connecter

    Météo par heure à San Isidro

    Ce jour, 20 Mai, Dimanche

    Heure Température Précipitation Vent Pression Humidité
    00:00 +22°C° 0 mm 0 m/s 697 mmHg 91%
    01:00 +22°C° 0,9 mm 0 m/s 697 mmHg 92%
    02:00 +22°C° 0,9 mm 0 m/s 696 mmHg 92%
    03:00 +21°C° 0,9 mm 0 m/s 696 mmHg 92%
    04:00 +22°C° 0,5 mm 0 m/s 696 mmHg 92%
    05:00 +22°C° 0,5 mm 0 m/s 697 mmHg 91%
    06:00 +22°C° 0,5 mm 0 m/s 697 mmHg 90%
    07:00 +25°C° 0,7 mm 1 m/s 697 mmHg 85%
    08:00 +27°C° 0,7 mm 1 m/s 698 mmHg 80%
    09:00 +28°C° 0,7 mm 1 m/s 698 mmHg 75%
    10:00 +28°C° 1,3 mm 1 m/s 698 mmHg 75%
    11:00 +28°C° 1,3 mm 1 m/s 698 mmHg 75%
    12:00 +28°C° 1,3 mm 1 m/s 697 mmHg 75%
    13:00 +28°C° 3,6 mm 1 m/s 697 mmHg 78%
    14:00 +27°C° 3,6 mm 1 m/s 696 mmHg 80%
    15:00 +27°C° 3,6 mm 1 m/s 696 mmHg 83%
    16:00 +26°C° 3,7 mm 1 m/s 696 mmHg 87%
    17:00 +25°C° 3,7 mm 1 m/s 696 mmHg 90%
    18:00 +22°C° 3,7 mm 0 m/s 696 mmHg 93%
    19:00 +22°C° 2,7 mm 0 m/s 696 mmHg 93%
    20:00 +22°C° 2,7 mm 0 m/s 697 mmHg 92%
    21:00 +22°C° 2,7 mm 0 m/s 697 mmHg 91%
    22:00 +22°C° 0,7 mm 0 m/s 697 mmHg 91%
    23:00 +22°C° 0,7 mm 0 m/s 697 mmHg 91%

    Demain, 21 Mai, Lundi

    Heure Température Précipitation Vent Pression Humidité
    00:00 +22°C° 0,7 mm 0 m/s 697 mmHg 91%
    01:00 +21°C° 0,1 mm 0 m/s 696 mmHg 91%
    02:00 +21°C° 0,1 mm 0 m/s 696 mmHg 91%
    03:00 +21°C° 0,1 mm 0 m/s 695 mmHg 91%
    04:00 +21°C° 0,1 mm 0 m/s 696 mmHg 90%
    05:00 +21°C° 0,1 mm 0 m/s 696 mmHg 90%
    06:00 +22°C° 0,1 mm 0 m/s 696 mmHg 89%
    07:00 +23°C° 0,3 mm 0 m/s 697 mmHg 86%
    08:00 +24°C° 0,3 mm 0 m/s 697 mmHg 82%
    09:00 +27°C° 0,3 mm 1 m/s 698 mmHg 78%
    10:00 +28°C° 0,6 mm 1 m/s 697 mmHg 76%
    11:00 +28°C° 0,6 mm 1 m/s 697 mmHg 74%
    12:00 +29°C° 0,6 mm 1 m/s 697 mmHg 73%
    13:00 +28°C° 1,5 mm 1 m/s 696 mmHg 75%
    14:00 +28°C° 1,5 mm 1 m/s 696 mmHg 78%
    15:00 +27°C° 1,5 mm 1 m/s 695 mmHg 81%
    16:00 +26°C° 2,9 mm 1 m/s 695 mmHg 85%
    17:00 +25°C° 2,9 mm 1 m/s 695 mmHg 88%
    18:00 +25°C° 2,9 mm 1 m/s 696 mmHg 92%
    19:00 +22°C° 3,8 mm 0 m/s 696 mmHg 93%
    20:00 +22°C° 3,8 mm 0 m/s 697 mmHg 93%
    21:00 +22°C° 3,8 mm 0 m/s 697 mmHg 93%
    22:00 +22°C° 2 mm 0 m/s 697 mmHg 92%
    23:00 +22°C° 2 mm 0 m/s 697 mmHg 92%

    Après-demain, 22 Mai, Mardi

    Heure Température Précipitation Vent Pression Humidité
    00:00 +22°C° 2 mm 0 m/s 697 mmHg 91%
    01:00 +22°C° 0,5 mm 0 m/s 696 mmHg 91%
    02:00 +21°C° 0,5 mm 0 m/s 696 mmHg 92%
    03:00 +21°C° 0,5 mm 0 m/s 695 mmHg 92%
    04:00 +21°C° 0,2 mm 0 m/s 696 mmHg 91%
    05:00 +22°C° 0,2 mm 0 m/s 696 mmHg 91%
    06:00 +22°C° 0,2 mm 0 m/s 696 mmHg 90%
    07:00 +25°C° 0,3 mm 1 m/s 697 mmHg 85%
    08:00 +26°C° 0,3 mm 1 m/s 697 mmHg 81%
    09:00 +28°C° 0,3 mm 1 m/s 698 mmHg 76%
    10:00 +28°C° 0,8 mm 1 m/s 698 mmHg 75%
    11:00 +28°C° 0,8 mm 1 m/s 697 mmHg 75%
    12:00 +28°C° 0,8 mm 1 m/s 697 mmHg 75%
    13:00 +28°C° 2,4 mm 1 m/s 697 mmHg 77%
    14:00 +27°C° 2,4 mm 1 m/s 696 mmHg 80%
    15:00 +27°C° 2,4 mm 1 m/s 695 mmHg 83%
    16:00 +26°C° 4,6 mm 1 m/s 696 mmHg 86%
    17:00 +25°C° 4,6 mm 1 m/s 696 mmHg 90%
    18:00 +22°C° 4,6 mm 0 m/s 696 mmHg 93%
    19:00 +22°C° 2,9 mm 0 m/s 697 mmHg 93%
    20:00 +22°C° 2,9 mm 0 m/s 697 mmHg 93%
    21:00 +22°C° 2,9 mm 0 m/s 698 mmHg 92%
    22:00 +22°C° 1,1 mm 0 m/s 698 mmHg 92%
    23:00 +22°C° 1,1 mm 0 m/s 697 mmHg 93%

    23 Mai, Mercredi

    Heure Température Précipitation Vent Pression Humidité
    00:00 +22°C° 1,1 mm 0 m/s 697 mmHg 93%
    01:00 +21°C° 1,1 mm 0 m/s 697 mmHg 93%
    02:00 +21°C° 1,1 mm 0 m/s 696 mmHg 93%
    03:00 +21°C° 1,1 mm 0 m/s 696 mmHg 93%
    04:00 +21°C° 1,1 mm 0 m/s 696 mmHg 92%
    05:00 +21°C° 1,1 mm 0 m/s 697 mmHg 92%
    06:00 +22°C° 1,1 mm 0 m/s 697 mmHg 91%
    07:00 +23°C° 0,5 mm 0 m/s 697 mmHg 87%
    08:00 +26°C° 0,5 mm 1 m/s 698 mmHg 82%
    09:00 +27°C° 0,5 mm 1 m/s 699 mmHg 78%
    10:00 +28°C° 0,5 mm 1 m/s 698 mmHg 76%
    11:00 +28°C° 0,5 mm 1 m/s 698 mmHg 75%
    12:00 +28°C° 0,5 mm 1 m/s 698 mmHg 73%
    13:00 +28°C° 0,9 mm 1 m/s 697 mmHg 75%
    14:00 +28°C° 0,9 mm 1 m/s 697 mmHg 77%
    15:00 +27°C° 0,9 mm 1 m/s 696 mmHg 79%
    16:00 +26°C° 1 mm 1 m/s 696 mmHg 83%
    17:00 +26°C° 1 mm 1 m/s 697 mmHg 87%
    18:00 +23°C° 1 mm 0 m/s 697 mmHg 92%
    19:00 +22°C° 0,8 mm 0 m/s 697 mmHg 92%
    20:00 +22°C° 0,8 mm 0 m/s 698 mmHg 92%
    21:00 +22°C° 0,8 mm 0 m/s 698 mmHg 93%
    22:00 +22°C° 0,4 mm 0 m/s 698 mmHg 92%
    23:00 +22°C° 0,4 mm 0 m/s 698 mmHg 91%

    24 Mai, Jeudi

    Heure Température Précipitation Vent Pression Humidité
    00:00 +22°C° 0,4 mm 0 m/s 698 mmHg 91%
    01:00 +22°C° 0,2 mm 0 m/s 697 mmHg 90%
    02:00 +22°C° 0,2 mm 0 m/s 697 mmHg 90%
    03:00 +21°C° 0,2 mm 0 m/s 697 mmHg 90%
    04:00 +22°C° 0,2 mm 0 m/s 697 mmHg 89%
    05:00 +22°C° 0,2 mm 0 m/s 697 mmHg 88%
    06:00 +22°C° 0,2 mm 0 m/s 698 mmHg 87%
    07:00 +25°C° 0,2 mm 1 m/s 698 mmHg 81%
    08:00 +27°C° 0,2 mm 1 m/s 699 mmHg 76%
    09:00 +28°C° 0,2 mm 1 m/s 699 mmHg 71%
    10:00 +29°C° 0,6 mm 1 m/s 699 mmHg 70%
    11:00 +29°C° 0,6 mm 1 m/s 698 mmHg 70%
    12:00 +29°C° 0,6 mm 1 m/s 698 mmHg 69%
    13:00 +29°C° 1,8 mm 1 m/s 697 mmHg 72%
    14:00 +28°C° 1,8 mm 1 m/s 697 mmHg 75%
    15:00 +28°C° 1,8 mm 1 m/s 696 mmHg 78%
    16:00 +27°C° 3,4 mm 1 m/s 696 mmHg 83%
    17:00 +26°C° 3,4 mm 1 m/s 697 mmHg 87%
    18:00 +23°C° 3,4 mm 0 m/s 697 mmHg 91%
    19:00 +23°C° 3,1 mm 0 m/s 697 mmHg 91%
    20:00 +23°C° 3,1 mm 0 m/s 698 mmHg 91%
    21:00 +23°C° 3,1 mm 0 m/s 698 mmHg 91%
    22:00 +22°C° 1,6 mm 0 m/s 698 mmHg 92%
    23:00 +22°C° 1,6 mm 0 m/s 698 mmHg 92%

    25 Mai, Vendredi

    Heure Température Précipitation Vent Pression Humidité
    00:00 +22°C° 1,6 mm 0 m/s 697 mmHg 93%
    01:00 +22°C° 1,4 mm 0 m/s 697 mmHg 93%
    02:00 +22°C° 1,4 mm 0 m/s 697 mmHg 94%
    03:00 +22°C° 1,4 mm 0 m/s 696 mmHg 94%
    04:00 +22°C° 1 mm 0 m/s 697 mmHg 93%
    05:00 +22°C° 1 mm 0 m/s 697 mmHg 93%
    06:00 +22°C° 1 mm 0 m/s 697 mmHg 92%
    07:00 +23°C° 1 mm 0 m/s 698 mmHg 89%
    08:00 +24°C° 1 mm 0 m/s 698 mmHg 85%
    09:00 +24°C° 1 mm 0 m/s 698 mmHg 82%
    10:00 +27°C° 1,5 mm 1 m/s 698 mmHg 81%
    11:00 +27°C° 1,5 mm 1 m/s 697 mmHg 80%
    12:00 +27°C° 1,5 mm 1 m/s 697 mmHg 79%
    13:00 +27°C° 2,5 mm 1 m/s 697 mmHg 81%
    14:00 +27°C° 2,5 mm 1 m/s 696 mmHg 82%
    15:00 +26°C° 2,5 mm 1 m/s 696 mmHg 84%
    16:00 +26°C° 2,5 mm 1 m/s 696 mmHg 87%
    17:00 +25°C° 2,5 mm 1 m/s 696 mmHg 90%
    18:00 +24°C° 2,5 mm 1 m/s 696 mmHg 93%
    19:00 +24°C° 1,7 mm 1 m/s 697 mmHg 93%
    20:00 +22°C° 1,7 mm 0 m/s 697 mmHg 94%
    21:00 +22°C° 1,7 mm 0 m/s 698 mmHg 94%
    22:00 +22°C° 0,9 mm 0 m/s 697 mmHg 94%
    23:00 +24°C° 0,9 mm 1 m/s 697 mmHg 94%
    Voir plus